Weather History for Watford City, ND

Change the Weather History Date:

Tuesday, August 27, 2013

  Actual Average (KISN) Record (KISN)
Temperature  
Mean Temperature 75 °F 66 °F  
Max Temperature 91 °F 81 °F 100 °F (1991)
Min Temperature 59 °F 51 °F 35 °F (1982)
Degree Days  
Heating Degree Days 0 3  
Month to date heating degree days 36  
Since 1 June heating degree days 180  
Since 1 July heating degree days 60  
Cooling Degree Days 10 3  
Month to date cooling degree days 154  
Year to date cooling degree days 417  
Since 1 June cooling degree days 404  
Growing Degree Days 25 (Base 50)    
Moisture  
Dew Point 59 °F    
Average Humidity 61    
Maximum Humidity 100    
Minimum Humidity 26    
Precipitation  
Precipitation 0.00 in 0.05 in 1.50 in (1903)
Month to date precipitation 1.28  
Year to date precipitation 10.95  
Snow  
Snow 0.00 in 0.00 in T in (1983)
Month to date snowfall 0.0  
Since 1 June snowfall 0.0  
Since 1 July snowfall 0.0  
Snow Depth -    
Sea Level Pressure  
Sea Level Pressure 29.92 in    
Wind  
Wind Speed 4 mph (SE)    
Max Wind Speed 10 mph    
Max Gust Speed 22 mph    
Visibility 9 miles    
Events      
T = Trace of Precipitation, MM = Missing Value Source: NWS Daily Summary

Daily Weather History Graph

Daily Weather History Graph

Search for Another Location

Airport:

Trip Planner

Search our weather history database for the weather conditions in past years. The results will help you decide how hot, cold, wet, or windy it might be!

Date:

Astronomy

Aug. 27, 2013 Rise Set
Actual Time 7:04 AM CDT 8:42 PM CDT
Civil Twilight 6:32 AM CDT 9:15 PM CDT
Nautical Twilight 5:52 AM CDT 9:54 PM CDT
Astronomical Twilight 5:09 AM CDT 10:37 PM CDT
Moon No Moon Rise 2:37 PM CDT (8/27)
Length of Visible Light 14h 42m
Length of Day
13h 37m
Waning Gibbous, 57% of the Moon is Illuminated
Aug 27
Waning Gibbous
Aug 28
Last Quarter
Sep 5
New
Sep 12
First Quarter
Sep 19
Full

Hourly Weather History & Observations

Time (CDT) Temp. Heat Index Dew Point Humidity Pressure Visibility Wind Dir Wind Speed Gust Speed Precip Events Conditions
12:15 AM 73.4 °F - 62.6 °F 69% 29.87 in 10.0 mi South 5.8 mph - N/A   Clear
12:35 AM 73.4 °F - 64.4 °F 73% 29.87 in 10.0 mi SSW 5.8 mph - N/A   Clear
12:55 AM 73.4 °F - 62.6 °F 69% 29.87 in 10.0 mi SSW 3.5 mph - N/A   Clear
1:15 AM 73.4 °F - 62.6 °F 69% 29.87 in 10.0 mi Calm Calm - N/A   Clear
1:35 AM 73.4 °F - 62.6 °F 69% 29.87 in 10.0 mi South 4.6 mph - N/A   Clear
1:55 AM 73.4 °F - 60.8 °F 65% 29.87 in 10.0 mi Calm Calm - N/A   Clear
2:15 AM 71.6 °F - 60.8 °F 69% 29.86 in 10.0 mi Calm Calm - N/A   Clear
2:35 AM 71.6 °F - 60.8 °F 69% 29.86 in 10.0 mi Calm Calm - N/A   Clear
2:55 AM 68.0 °F - 60.8 °F 78% 29.86 in 10.0 mi Calm Calm - N/A   Clear
3:15 AM 66.2 °F - 59.0 °F 78% 29.86 in 10.0 mi Calm Calm - N/A   Clear
3:35 AM 66.2 °F - 59.0 °F 78% 29.87 in 10.0 mi Calm Calm - N/A   Clear
3:55 AM 64.4 °F - 59.0 °F 83% 29.87 in 10.0 mi SE 3.5 mph - N/A   Clear
4:15 AM 64.4 °F - 59.0 °F 83% 29.87 in 10.0 mi Calm Calm - N/A   Clear
4:35 AM 62.6 °F - 57.2 °F 82% 29.87 in 10.0 mi Calm Calm - N/A   Clear
4:55 AM 62.6 °F - 59.0 °F 88% 29.87 in 10.0 mi Calm Calm - N/A   Clear
5:15 AM 62.6 °F - 59.0 °F 88% 29.87 in 10.0 mi Calm Calm - N/A   Clear
5:35 AM 62.6 °F - 59.0 °F 88% 29.87 in 10.0 mi SSE 3.5 mph - N/A   Clear
5:55 AM 60.8 °F - 59.0 °F 94% 29.87 in 10.0 mi Calm Calm - N/A   Clear
6:15 AM 60.8 °F - 59.0 °F 94% 29.87 in 10.0 mi Calm Calm - N/A   Clear
6:35 AM 59.0 °F - 59.0 °F 100% 29.88 in 10.0 mi Calm Calm - N/A   Clear
6:55 AM 60.8 °F - 59.0 °F 94% 29.89 in 10.0 mi Calm Calm - N/A   Clear
7:15 AM 64.4 °F - 62.6 °F 94% 29.92 in 10.0 mi NNW 5.8 mph 21.9 mph N/A   Clear
7:35 AM 66.2 °F - 62.6 °F 88% 29.93 in 10.0 mi Calm Calm - N/A   Clear
7:55 AM 68.0 °F - 64.4 °F 88% 29.93 in 10.0 mi Calm Calm - N/A   Clear
8:15 AM 68.0 °F - 64.4 °F 88% 29.93 in 10.0 mi North 3.5 mph - N/A   Clear
8:35 AM 68.0 °F - 64.4 °F 88% 29.93 in 10.0 mi Calm Calm - N/A   Clear
8:55 AM 71.6 °F - 64.4 °F 78% 29.93 in 10.0 mi NNE 6.9 mph - N/A   Clear
9:15 AM 71.6 °F - 62.6 °F 73% 29.93 in 10.0 mi NNE 9.2 mph 16.1 mph N/A   Clear
9:35 AM 75.2 °F - 59.0 °F 57% 29.94 in 10.0 mi NNE 10.4 mph - N/A   Clear
9:55 AM 75.2 °F - 57.2 °F 53% 29.94 in 10.0 mi North 9.2 mph 16.1 mph N/A   Clear
10:15 AM 75.2 °F - 57.2 °F 53% 29.94 in 10.0 mi NNE 3.5 mph - N/A   Clear
10:35 AM 77.0 °F - 57.2 °F 50% 29.95 in 10.0 mi NE 4.6 mph - N/A   Clear
10:55 AM 75.2 °F - 57.2 °F 53% 29.96 in 10.0 mi NNW 3.5 mph - N/A   Clear
11:15 AM 75.2 °F - 59.0 °F 57% 29.98 in 10.0 mi West 9.2 mph - N/A   Clear
11:35 AM 75.2 °F - 57.2 °F 53% 29.99 in 10.0 mi NW 6.9 mph - N/A   Clear
11:55 AM 75.2 °F - 57.2 °F 53% 30.00 in 10.0 mi WNW 5.8 mph - N/A   Clear
12:15 PM 75.2 °F - 57.2 °F 53% 30.00 in 10.0 mi WSW 4.6 mph - N/A   Clear
12:35 PM 75.2 °F - 59.0 °F 57% 30.00 in 10.0 mi WSW 4.6 mph - N/A   Clear
12:55 PM 77.0 °F - 57.2 °F 50% 29.97 in 10.0 mi North 4.6 mph - N/A   Clear
1:15 PM 77.0 °F - 57.2 °F 50% 29.96 in 10.0 mi NNW 6.9 mph - N/A   Clear
1:35 PM 78.8 °F - 57.2 °F 47% 29.96 in 10.0 mi NNW 5.8 mph - N/A   Partly Cloudy
1:55 PM 82.4 °F 82.0 °F 57.2 °F 42% 29.96 in 10.0 mi ESE 6.9 mph - N/A   Partly Cloudy
2:15 PM 80.6 °F 80.8 °F 57.2 °F 45% 29.95 in 10.0 mi NE 3.5 mph - N/A   Clear
2:35 PM 82.4 °F 82.0 °F 57.2 °F 42% 29.95 in 10.0 mi East 3.5 mph - N/A   Clear
2:55 PM 82.4 °F 82.0 °F 57.2 °F 42% 29.95 in 10.0 mi Calm Calm - N/A   Clear
3:15 PM 86.0 °F 84.5 °F 55.4 °F 35% 29.95 in 6.0 mi Calm Calm - N/A   Haze
3:35 PM 86.0 °F 84.5 °F 55.4 °F 35% 29.94 in 10.0 mi Calm Calm - N/A   Clear
3:55 PM 87.8 °F 86.1 °F 55.4 °F 33% 29.94 in 10.0 mi West 3.5 mph - N/A   Clear
4:15 PM 89.6 °F 87.7 °F 55.4 °F 31% 29.93 in 10.0 mi Calm Calm - N/A   Clear
4:35 PM 89.6 °F 87.7 °F 55.4 °F 31% 29.92 in 10.0 mi East 3.5 mph - N/A   Clear
4:55 PM 89.6 °F 87.3 °F 53.6 °F 29% 29.92 in 10.0 mi SSE 4.6 mph - N/A   Clear
5:15 PM 91.4 °F - 51.8 °F 26% 29.92 in 10.0 mi SSW 5.8 mph - N/A   Clear
5:35 PM 91.4 °F - 51.8 °F 26% 29.92 in 10.0 mi South 8.1 mph - N/A   Clear
5:55 PM 89.6 °F 87.3 °F 53.6 °F 29% 29.92 in 10.0 mi South 6.9 mph - N/A   Clear
6:15 PM 89.6 °F 87.3 °F 53.6 °F 29% 29.92 in 10.0 mi SE 6.9 mph - N/A   Clear
6:35 PM 89.6 °F 87.3 °F 53.6 °F 29% 29.92 in 1.5 mi SSE 4.6 mph - N/A   Haze
6:55 PM 87.8 °F 86.1 °F 55.4 °F 33% 29.92 in 9.0 mi South 5.8 mph - N/A   Clear
7:15 PM 86.0 °F 84.9 °F 57.2 °F 37% 29.92 in 2.5 mi South 8.1 mph - N/A   Haze
7:35 PM 84.2 °F 83.5 °F 57.2 °F 40% 29.92 in 2.5 mi South 9.2 mph - N/A   Haze
7:55 PM 82.4 °F 82.5 °F 59.0 °F 45% 29.93 in 2.0 mi SSE 8.1 mph - N/A   Haze
8:15 PM 80.6 °F 81.1 °F 59.0 °F 48% 29.93 in 2.0 mi SSE 8.1 mph - N/A   Haze
8:35 PM 80.6 °F 81.1 °F 59.0 °F 48% 29.93 in 3.0 mi SSE 6.9 mph - N/A   Haze
8:55 PM 77.0 °F - 57.2 °F 50% 29.94 in 2.5 mi SSE 8.1 mph - N/A   Haze
9:15 PM 77.0 °F - 59.0 °F 54% 29.94 in 3.0 mi SE 9.2 mph - N/A   Haze
9:35 PM 73.4 °F - 59.0 °F 61% 29.95 in 5.0 mi SE 6.9 mph - N/A   Haze
9:55 PM 71.6 °F - 59.0 °F 64% 29.96 in 10.0 mi Calm Calm - N/A   Clear
10:15 PM 71.6 °F - 59.0 °F 64% 29.95 in 10.0 mi ESE 3.5 mph - N/A   Clear
10:35 PM 69.8 °F - 59.0 °F 68% 29.96 in 10.0 mi NE 4.6 mph - N/A   Clear
10:55 PM 68.0 °F - 59.0 °F 73% 29.96 in 10.0 mi Calm Calm - N/A   Clear
11:15 PM 69.8 °F - 59.0 °F 68% 29.96 in 10.0 mi SE 4.6 mph - N/A   Clear
11:35 PM 68.0 °F - 59.0 °F 73% 29.96 in 10.0 mi East 6.9 mph - N/A   Clear
11:55 PM 66.2 °F - 59.0 °F 78% 29.97 in 10.0 mi Calm Calm - N/A   Clear